Weather in Kosikha

Russia / Altai Krai     53°21′40″N   84°34′47″E
temp.,
°C
wind,
m/s
gust,
m/s
humid.,
%
clouds,
%
prec.,
mm/h
press.,
hPa
HPBL,
m
10 may, mon
mon1001:00+7ne612511 0.0 1019610
04:00+5ne513653 0.0 1019481
07:00+5ne512738 0.0 1020528
10:00+10ene79565 0.0 1019869
13:00+14ene8103754 0.0 10171526
16:00+17ene810295 0.0 10161935
19:00+15ene711395 0.0 10151445
22:00+11ne41254100 0.0 1015335
11 may, tue
tue1101:00+9ne61257100 0.0 1014376
04:00+7nne41067100 0.0 1014287
07:00+6nne497118 0.0 1014314
10:00+11ne45514 0.0 1014862
13:00+15nne45375 0.0 10131764
16:00+18nne45326 0.0 10132381
19:00+17n453858 0.0 1013823
22:00+12n3104817 0.0 1014190
12 may, wed
wed1201:00+11nne6135588 0.0 1015348
04:00+8nne410675 0.0 1015252
07:00+8n39774 0.0 1016240
10:00+14nne465528 0.0 1016656
13:00+19nne4634100 0.0 10153208
16:00+18n773527 0.0 10152577
19:00+18n584029 0.0 1016652
22:00+14n6125086 0.0 1017409
13 may, thu
thu1301:00+11nne376088 0.0 1018156
04:00+10ne2263100 0.0 101829
07:00+10ne236544 0.0 101884
10:00+15ne11465 0.0 1017606
13:00+18nne223578 0.0 10162442
16:00+19nnw213360 0.0 10152349
19:00+18nnw22344 0.0 10151808
22:00+14nw11420 0.0 101610
14 may, fri
fri1401:00+11wnw22536 0.0 101620
04:00+10wnw2261100 0.0 101520
07:00+10wnw4876100 0.1 1016252
10:00+12wnw576571 0.4 1017866
13:00+16nw7845100 0.4 10172105
16:00+16wnw684411 0.0 10172052
19:00+15wnw3847100 0.0 10181815
22:00+10nw385468 0.0 1022202